TimeEST,TemperatureF,Dew PointF,Humidity,Sea Level PressureIn,VisibilityMPH,Wind Direction,Wind SpeedMPH,Gust SpeedMPH,PrecipitationIn,Events,Conditions,WindDirDegrees,DateUTC
6:00 AM,77.0,73.4,89,29.95,6.2,East,3.5,-,N/A,,Scattered Clouds,100,2013-12-29 11:00:00
7:00 AM,76,73,89,29.98,6,Calm,Calm,,,,Partly Cloudy,,2013-12-29 12:00:00
7:00 AM,77.0,73.4,89,29.98,6.2,Calm,Calm,-,N/A,,Scattered Clouds,0,2013-12-29 12:00:00
8:00 AM,77.0,75.2,94,30.01,6.2,East,3.5,-,N/A,,Mostly Cloudy,100,2013-12-29 13:00:00
9:00 AM,78.8,77.0,94,30.04,6.2,ENE,3.5,-,N/A,,Scattered Clouds,70,2013-12-29 14:00:00
10:00 AM,82.4,77.0,84,30.04,6.2,ENE,6.9,-,N/A,,Mostly Cloudy,70,2013-12-29 15:00:00
11:00 AM,84.2,77.0,79,30.04,6.2,SE,4.6,-,N/A,,Scattered Clouds,130,2013-12-29 16:00:00
12:00 PM,86.0,77.0,74,30.01,6.2,SE,5.8,-,N/A,,Partly Cloudy,140,2013-12-29 17:00:00
1:00 PM,85,75,66,29.99,6,SSE,6.9,,,,Scattered Clouds,150,2013-12-29 18:00:00
1:00 PM,86.0,75.2,70,29.98,6.2,SSE,6.9,-,N/A,,Partly Cloudy,150,2013-12-29 18:00:00
2:00 PM,84.2,75.2,74,29.95,6.2,SSE,5.8,-,N/A,,Partly Cloudy,150,2013-12-29 19:00:00
3:00 PM,86.0,77.0,74,29.95,6.2,SE,6.9,-,N/A,,Partly Cloudy,140,2013-12-29 20:00:00
4:00 PM,84.2,77.0,79,29.95,6.2,SE,5.8,-,N/A,,Partly Cloudy,130,2013-12-29 21:00:00
5:00 PM,82.4,77.0,84,29.95,6.2,ESE,5.8,-,N/A,,Partly Cloudy,110,2013-12-29 22:00:00
6:00 PM,82.4,77.0,84,29.95,6.2,East,5.8,-,N/A,,Partly Cloudy,100,2013-12-29 23:00:00
7:00 PM,81,77,83,30.01,6,East,6.9,,,,Scattered Clouds,90,2013-12-30 00:00:00
7:00 PM,80.6,75.2,84,29.98,6.2,East,3.5,-,N/A,,Clear,100,2013-12-30 00:00:00
8:00 PM,78.8,77.0,94,30.01,6.2,East,4.6,-,N/A,,Clear,100,2013-12-30 01:00:00
9:00 PM,78.8,77.0,94,30.01,6.2,East,4.6,-,N/A,,Partly Cloudy,100,2013-12-30 02:00:00
10:00 PM,78.8,77.0,94,30.01,6.2,East,4.6,-,N/A,,Partly Cloudy,100,2013-12-30 03:00:00